"Pseudo-MPEC" for F4S4302

Created 2024 Oct 4 20:22:19 UT using Find_Orb

Click here for an explanation of pseudo-MPECs

 
 Astrometry: 
     F4S4302* B2024 09 23.97361 00 31 53.59 +09 03 50.3    ~9P1Mx17.9 GXNEOCPM45
     F4S4302  B2024 09 23.97425 00 31 53.55 +09 03 52.1    ~9P1M 17.8 GXNEOCPM45
     F4S4302  B2024 09 23.97505 00 31 53.60 +09 03 48.7    ~9P1Mx17.6 GXNEOCPM45
     F4S4302  B2024 09 23.97601 00 31 53.50 +09 03 50.4    ~9P1M 18.0 GXNEOCPM45
     F4S4302  B2024 09 23.97682 00 31 53.53 +09 03 50.7    ~9P1M 17.6 GXNEOCPM45
     F4S4302  B2024 09 23.97762 00 31 53.77 +09 03 49.7    ~9P1Mx17.6 GXNEOCPM45
     F4S4302  B2024 09 23.97906 00 31 53.59 +09 03 48.9    ~9P1M 17.7 GXNEOCPM45

Station data:
(M45) Starhopper Observatory, Sfantu Gheorghe  (N45.865494 E25.768890)
   Romania.  Observer F. Ursache. 0.41-m f/7.5 reflector + CMO.

Orbital elements:  F4S4302
   Perihelion 2024 Oct 5.44055 TT = 10:34:23 (JD 2460588.94055)
Epoch 2024 Sep 24.0 TT = JDT 2460577.5   Earth MOID: 0.0019   Ju: 0.5030
q   0.08352891                      Ve: 0.0118   Me: 0.0186   Ma: 0.0693
H   20.09 G 0.15   Peri.  278.62833                              AutoNEOCP
z -35.4565879510   Node   183.26178
e   3.9616504      Incl.   73.14193                       (J2000 ecliptic)
4 of 7 observations 2024 Sept. 23 (6.9 min); mean residual 0".39
Residuals in arcseconds: 
240923 M45( 1.2+  2.3-)   240923 M45  .46-  .67-    240923 M45  .41+  .19-    
240923 M45  .54+  .11-    240923 M45  .14-  .15+    
240923 M45( 1.2+  3.0-)   240923 M45( 3.3+  .33-)   

Ephemerides (geocentric):
Date (UTC) HH   RA             Dec           delta  r     elong  mag
---- --------  ------------   ------------  ------ ------ -----  ---
2024 10 04 20  12 31 31.564   -09 00 57.39  .93426 .11028   5.2 20??
2024 10 04 21  12 31 34.717   -08 59 24.86  .93943 .10718   5.2 20??
2024 10 04 22  12 31 38.148   -08 57 46.49  .94462 .10420   5.2 19.9
2024 10 04 23  12 31 41.883   -08 56 01.86  .94983 .10137   5.2 19.6
2024 10 05 00  12 31 45.950   -08 54 10.53  .95506 .09869   5.2 19.4
2024 10 05 01  12 31 50.376   -08 52 12.06  .96032 .09617   5.1 19.2
2024 10 05 02  12 31 55.190   -08 50 06.00  .96560 .09384   5.1 19.0
2024 10 05 03  12 32 00.421   -08 47 51.93  .97089 .09171   5.1 18.8
2024 10 05 04  12 32 06.098   -08 45 29.45  .97620 .08980   5.0 18.6
2024 10 05 05  12 32 12.249   -08 42 58.19  .98153 .08811   5.0 18.4
2024 10 05 06  12 32 18.898   -08 40 17.88  .98687 .08667   4.9 18.2
2024 10 05 07  12 32 26.069   -08 37 28.28  0.9922 .08549   4.9 18.0
2024 10 05 08  12 32 33.778   -08 34 29.28  0.9976 .08458   4.9 17.9
2024 10 05 09  12 32 42.037   -08 31 20.86  1.0029 .08395   4.8 17.7
2024 10 05 10  12 32 50.854   -08 28 03.12  1.0083 .08360   4.7 17.6
2024 10 05 11  12 33 00.226   -08 24 36.29  1.0136 .08354   4.7 17.5
2024 10 05 12  12 33 10.146   -08 21 00.70  1.0189 .08378   4.6 17.4
2024 10 05 13  12 33 20.600   -08 17 16.81  1.0242 .08430   4.6 17.3
2024 10 05 14  12 33 31.566   -08 13 25.16  1.0295 .08510   4.5 17.2
2024 10 05 15  12 33 43.017   -08 09 26.37  1.0347 .08618   4.4 17.1
2024 10 05 16  12 33 54.924   -08 05 21.10  1.0400 .08753   4.4 17.1
2024 10 05 17  12 34 07.250   -08 01 10.06  1.0452 .08912   4.3 17.0
2024 10 05 18  12 34 19.961   -07 56 53.96  1.0503 .09094   4.2 17.0
2024 10 05 19  12 34 33.018   -07 52 33.49  1.0555 .09299   4.2 16.9
2024 10 05 20  12 34 46.384   -07 48 09.33  1.0606 .09525   4.1 16.9
2024 10 05 21  12 35 00.023   -07 43 42.12  1.0656 .09769   4.0 16.9
2024 10 05 22  12 35 13.900   -07 39 12.45  1.0706 .10031   3.9 16.9
2024 10 05 23  12 35 27.982   -07 34 40.87  1.0756 .10308   3.9 16.9
2024 10 06 00  12 35 42.238   -07 30 07.87  1.0806 .10601   3.8 16.9
2024 10 06 01  12 35 56.640   -07 25 33.89  1.0855 .10906   3.7 16.9
2024 10 06 02  12 36 11.161   -07 20 59.33  1.0904 .11224   3.6 17.0
2024 10 06 03  12 36 25.779   -07 16 24.55  1.0952 .11552   3.6 17.0
2024 10 06 04  12 36 40.472   -07 11 49.83  1.1001 .11891   3.5 17.0
2024 10 06 05  12 36 55.221   -07 07 15.47  1.1049 .12239   3.4 17.0
2024 10 06 06  12 37 10.008   -07 02 41.67  1.1096 .12594   3.3 17.0
2024 10 06 07  12 37 24.820   -06 58 08.66  1.1144 .12958   3.3 17.1
2024 10 06 08  12 37 39.642   -06 53 36.59  1.1191 .13328   3.2 17.1
2024 10 06 09  12 37 54.462   -06 49 05.61  1.1238 .13704   3.1 17.1
2024 10 06 10  12 38 09.270   -06 44 35.86  1.1285 .14085   3.1 17.2
2024 10 06 11  12 38 24.057   -06 40 07.43  1.1331 .14472   3.0 17.2
2024 10 06 12  12 38 38.814   -06 35 40.42  1.1378 .14863   2.9 17.2
2024 10 06 13  12 38 53.535   -06 31 14.91  1.1424 .15258   2.9 17.3
2024 10 06 14  12 39 08.212   -06 26 50.94  1.1470 .15657   2.8 17.3
2024 10 06 15  12 39 22.840   -06 22 28.59  1.1516 .16060   2.8 17.3
2024 10 06 16  12 39 37.416   -06 18 07.89  1.1561 .16466   2.7 17.4
2024 10 06 17  12 39 51.933   -06 13 48.86  1.1607 .16874   2.7 17.4
2024 10 06 18  12 40 06.389   -06 09 31.55  1.1652 .17286   2.6 17.5
2024 10 06 19  12 40 20.781   -06 05 15.97  1.1697 .17699   2.6 17.5